Location: Arboyeti
(42.1122°N, 44.6017°E)
Time: 19:54:33
(UTC+00:00)

Meteor 2-21 - Pass Details

Date: 19 April 2021
Orbit: 933 x 967 km, 82.5° (Epoch: 18 May)

Event Time Altitude Azimuth Distance (km) Brightness Sun altitude
Rises 17:44:20 0° 353° (N) 3,600 8.2 -20.1°
Reaches altitude 10° 17:46:50 10° 355° (N) 2,653 7.3 -20.4°
Maximum altitude 17:52:53 74° 81° (E) 976 4.3 -21.3°
Enters shadow 17:55:18 38° 157° (SSE) 1,387 4.8 -21.7°
